DW2047 Weather Reports


Display with metric or nautical units.
time (UTC)temp
F
wind
direction
speed
MPH
gust
MPH
rain 1hr
in
rain 24hr
in
rain mn
in
humidity
%
barometer
mb
20260506151037 62 338 4.0 0.0 0.00 0.00 0.00 91 1012.8
20260506150512 62 340 4.0 0.0 0.00 0.00 0.00 91 1012.6
20260506150109 63 328 4.0 0.0 0.00 0.00 0.00 91 1012.3
20260506145539 63 360 4.0 0.0 0.00 0.00 0.00 91 1011.7
20260506145014 63 333 3.0 0.0 0.00 0.00 0.00 91 1011.8
20260506144529 63 340 3.0 0.0 0.00 0.00 0.00 91 1011.5
20260506144050 64 343 4.0 0.0 0.00 0.00 0.00 91 1011.4
20260506143526 64 294 5.0 0.0 0.00 0.00 0.00 91 1011.6
20260506143030 64 349 5.0 0.0 0.00 0.00 0.00 91 1011.5
20260506142505 65 335 4.0 0.0 0.00 0.00 0.00 91 1011.5
20260506142044 65 350 4.0 0.0 0.00 0.00 0.00 91 1011.2
20260506141551 66 350 3.0 0.0 0.00 0.00 0.00 91 1010.8
20260506141024 66 336 3.0 0.0 0.00 0.00 0.00 91 1010.8
20260506140605 67 11 3.0 0.0 0.00 0.00 0.00 91 1010.6
20260506140004 67 342 3.0 0.0 0.00 0.00 0.00 91 1010.3
20260506135539 67 335 3.0 0.0 0.00 0.00 0.00 90 1010.8
20260506135016 68 348 3.0 0.0 0.00 0.00 0.00 90 1010.6
20260506134516 70 336 2.0 0.0 0.00 0.00 0.00 89 1010.3
20260506134054 72 9 2.0 0.0 0.00 0.00 0.00 91 1010.3
20260506133523 74 155 1.0 0.0 0.00 0.00 0.00 91 1009.7
20260506133029 74 155 0.0 0.0 0.00 0.00 0.00 91 1009.8
20260506132605 74 155 0.0 0.0 0.00 0.00 0.00 91 1009.8
20260506132041 74 155 0.0 0.0 0.00 0.00 0.00 91 1009.8
20260506131548 74 155 0.0 0.0 0.00 0.00 0.00 91 1009.8
20260506131017 73 155 0.0 0.0 0.00 0.00 0.00 91 1009.7
20260506130551 73 155 0.0 0.0 0.00 0.00 0.00 91 1009.5
20260506130137 73 155 0.0 0.0 0.00 0.00 0.00 91 1009.3
20260506125528 73 155 0.0 0.0 0.00 0.00 0.00 91 1009.2
20260506125001 73 155 0.0 0.0 0.00 0.00 0.00 91 1009.3
20260506124504 73 155 0.0 0.0 0.00 0.00 0.00 91 1009.2
20260506124047 72 155 0.0 0.0 0.00 0.00 0.00 91 1009.1
20260506123519 72 155 0.0 0.0 0.00 0.00 0.00 91 1009.1
20260506123035 72 155 0.0 0.0 0.00 0.00 0.00 91 1009.1
20260506122603 72 155 0.0 0.0 0.00 0.00 0.00 91 1009.1
20260506122034 72 155 0.0 0.0 0.00 0.00 0.00 92 1008.9
20260506121550 72 155 0.0 0.0 0.00 0.00 0.00 92 1008.9
20260506121013 72 155 0.0 0.0 0.00 0.00 0.00 92 1008.9
20260506120551 72 155 0.0 0.0 0.00 0.00 0.00 92 1008.9
20260506120052 72 155 0.0 0.0 0.00 0.00 0.00 92 1008.9
20260506115528 72 155 0.0 0.0 0.00 0.00 0.00 92 1008.9
20260506115102 73 155 0.0 0.0 0.00 0.00 0.00 92 1008.8
20260506114509 73 155 0.0 0.0 0.00 0.00 0.00 92 1008.8
20260506114040 73 155 0.0 0.0 0.00 0.00 0.00 92 1008.8
20260506113514 73 155 0.0 0.0 0.00 0.00 0.00 92 1008.8
20260506113020 73 155 0.0 0.0 0.00 0.00 0.00 92 1008.8
20260506112559 73 155 1.0 0.0 0.00 0.00 0.00 92 1008.8
20260506112028 73 155 1.0 0.0 0.00 0.00 0.00 91 1008.9
20260506111534 73 155 1.0 0.0 0.00 0.00 0.00 91 1008.8
20260506111015 74 155 1.0 0.0 0.00 0.00 0.00 91 1008.8
20260506110551 74 157 1.0 0.0 0.00 0.00 0.00 91 1008.8
20260506110056 74 156 1.0 0.0 0.00 0.00 0.00 92 1008.8
20260506105529 74 156 1.0 0.0 0.00 0.00 0.00 92 1008.8
20260506105105 74 157 1.0 0.0 0.00 0.00 0.00 92 1008.8
20260506104600 74 157 0.0 0.0 0.00 0.00 0.00 92 1008.8
20260506104025 74 157 0.0 0.0 0.00 0.00 0.00 92 1008.8
20260506103501 74 157 0.0 0.0 0.00 0.00 0.00 92 1008.7
20260506103007 74 157 0.0 0.0 0.00 0.00 0.00 92 1008.7
20260506102545 74 157 0.0 0.0 0.00 0.00 0.00 91 1008.6
20260506102019 74 157 1.0 0.0 0.00 0.00 0.00 91 1008.6
20260506101522 74 157 1.0 0.0 0.00 0.00 0.00 91 1008.5
20260506101059 74 157 1.0 0.0 0.00 0.00 0.00 91 1008.5
20260506100530 74 157 1.0 0.0 0.00 0.00 0.00 91 1008.3
20260506100031 74 157 1.0 0.0 0.00 0.00 0.00 91 1008.3
20260506095504 74 157 2.0 0.0 0.00 0.00 0.00 91 1008.3
20260506095043 74 157 2.0 0.0 0.00 0.00 0.00 91 1008.2
20260506094534 74 148 3.0 0.0 0.00 0.00 0.00 91 1008.2
20260506094010 75 148 3.0 0.0 0.00 0.00 0.00 90 1008.1
20260506093547 75 146 3.0 0.0 0.00 0.00 0.00 90 1008.0
20260506093036 75 148 2.0 0.0 0.00 0.00 0.00 90 1008.0
20260506092505 75 148 2.0 0.0 0.00 0.00 0.00 89 1008.0
20260506092048 75 148 3.0 0.0 0.00 0.00 0.00 89 1008.0
20260506091536 75 148 3.0 0.0 0.00 0.00 0.00 89 1007.9
20260506091014 75 155 2.0 0.0 0.00 0.00 0.00 89 1007.9
20260506090546 75 90 2.0 0.0 0.00 0.00 0.00 89 1007.9
20260506090039 75 90 1.0 0.0 0.00 0.00 0.00 89 1007.9
20260506085513 75 144 1.0 0.0 0.00 0.00 0.00 89 1007.9
20260506085053 75 144 2.0 0.0 0.00 0.00 0.00 89 1007.8
20260506084600 75 144 3.0 0.0 0.00 0.00 0.00 89 1007.7
20260506084027 75 142 3.0 0.0 0.00 0.00 0.00 89 1007.9
20260506083504 75 142 2.0 0.0 0.00 0.00 0.00 89 1007.9
20260506083058 75 142 2.0 0.0 0.00 0.00 0.00 89 1007.9
20260506082527 75 142 2.0 0.0 0.00 0.00 0.00 89 1007.8
20260506082006 75 142 3.0 0.0 0.00 0.00 0.00 89 1007.8
20260506081512 75 158 4.0 0.0 0.00 0.00 0.00 89 1007.8
20260506081046 75 144 4.0 0.0 0.00 0.00 0.00 89 1007.8
20260506080518 75 132 2.0 0.0 0.00 0.00 0.00 89 1007.8
20260506073032 75 118 3.0 0.0 0.00 0.00 0.00 89 1007.9
20260506072509 75 180 4.0 0.0 0.00 0.00 0.00 89 1007.9
20260506072047 75 158 5.0 0.0 0.00 0.00 0.00 89 1007.9
20260506071537 75 138 4.0 0.0 0.00 0.00 0.00 89 1008.0
20260506071014 75 142 4.0 0.0 0.00 0.00 0.00 89 1007.9
20260506070552 75 140 4.0 0.0 0.00 0.00 0.00 89 1007.8
20260506062032 76 142 5.0 0.0 0.00 0.00 0.00 88 1007.6
20260506061545 76 192 5.0 0.0 0.00 0.00 0.00 88 1007.7
20260506061017 76 167 5.0 0.0 0.00 0.00 0.00 89 1007.6
20260506060555 76 150 6.0 0.0 0.00 0.00 0.00 89 1007.7
20260506051036 76 136 4.0 0.0 0.00 0.00 0.00 88 1007.8
20260506050510 76 135 5.0 0.0 0.00 0.00 0.00 89 1007.8
20260506045022 76 138 5.0 0.0 0.00 0.00 0.00 88 1007.8
20260506044543 76 148 5.0 0.0 0.00 0.00 0.00 88 1007.8
20260506044106 76 158 6.0 0.0 0.00 0.00 0.00 88 1007.7
20260506043540 76 146 6.0 0.0 0.00 0.00 0.00 88 1007.7
20260506043043 76 119 5.0 0.0 0.00 0.00 0.00 88 1007.8
20260506042513 76 145 3.0 0.0 0.00 0.00 0.00 88 1007.8
20260506042052 76 145 3.0 0.0 0.00 0.00 0.00 88 1007.9
20260506041539 76 135 4.0 0.0 0.00 0.00 0.00 88 1007.8
20260506041018 76 148 3.0 0.0 0.00 0.00 0.00 87 1007.8
20260506040550 76 163 3.0 0.0 0.00 0.00 0.00 87 1007.7
20260506040050 77 178 4.0 0.0 0.00 0.00 0.00 87 1007.7
20260506035523 77 144 4.0 0.0 0.00 0.00 0.00 86 1007.5
20260506035105 77 142 4.0 0.0 0.00 0.00 0.00 86 1007.6
20260506034506 77 148 4.0 0.0 0.00 0.00 0.00 86 1007.5
20260506034041 77 144 4.0 0.0 0.00 0.00 0.00 85 1007.4
20260506033516 77 143 4.0 0.0 0.00 0.00 0.00 84 1007.3
20260506033025 78 135 4.0 0.0 0.00 0.00 0.00 84 1007.2
20260506032552 78 147 3.0 0.0 0.00 0.00 0.00 84 1007.2
20260506032028 78 151 3.0 0.0 0.00 0.00 0.00 83 1007.2
20260506031544 78 146 3.0 0.0 0.00 0.00 0.00 83 1007.1
20260506031007 78 146 2.0 0.0 0.00 0.00 0.00 83 1007.0
20260506030548 78 146 2.0 0.0 0.00 0.00 0.00 82 1007.0
20260506030051 78 146 3.0 0.0 0.00 0.00 0.00 82 1006.8
20260506025521 78 146 3.0 0.0 0.00 0.00 0.00 82 1006.8
20260506025057 78 146 3.0 0.0 0.00 0.00 0.00 82 1006.8
20260506024603 78 146 3.0 0.0 0.00 0.00 0.00 82 1006.7
20260506024035 78 138 3.0 0.0 0.00 0.00 0.00 82 1006.5
20260506023508 78 153 3.0 0.0 0.00 0.00 0.00 82 1006.4
20260506023013 78 153 3.0 0.0 0.00 0.00 0.00 82 1006.4
20260506022548 78 161 3.0 0.0 0.00 0.00 0.00 81 1006.3
20260506022021 78 146 3.0 0.0 0.00 0.00 0.00 82 1006.2
20260506021524 78 146 2.0 0.0 0.00 0.00 0.00 82 1006.1
20260506021103 78 146 2.0 0.0 0.00 0.00 0.00 81 1006.1
20260506020536 78 146 1.0 0.0 0.00 0.00 0.00 81 1006.0
20260506020037 79 146 1.0 0.0 0.00 0.00 0.00 80 1006.0
20260506015507 79 146 1.0 0.0 0.00 0.00 0.00 80 1006.0
20260506015050 79 146 1.0 0.0 0.00 0.00 0.00 79 1006.0
20260506014548 79 146 2.0 0.0 0.00 0.00 0.00 79 1005.9
20260506014020 80 146 3.0 0.0 0.00 0.00 0.00 79 1005.8
20260506013556 80 148 2.0 0.0 0.00 0.00 0.00 78 1005.8
20260506013043 80 148 2.0 0.0 0.00 0.00 0.00 78 1005.8
20260506012516 80 148 3.0 0.0 0.00 0.00 0.00 77 1005.7
20260506012102 80 137 3.0 0.0 0.00 0.00 0.00 77 1005.6
20260506011547 81 166 3.0 0.0 0.00 0.00 0.00 76 1005.6
20260506011020 81 167 3.0 0.0 0.00 0.00 0.00 76 1005.5
20260506010554 81 136 4.0 0.0 0.00 0.00 0.00 75 1005.6
20260506010054 81 136 4.0 0.0 0.00 0.00 0.00 74 1005.5
20260506005519 81 152 4.0 0.0 0.00 0.00 0.00 74 1005.5
20260506005101 82 134 5.0 0.0 0.00 0.00 0.00 73 1005.5
20260506004604 82 132 4.0 0.0 0.00 0.00 0.00 73 1005.5
20260506004037 82 148 4.0 0.0 0.00 0.00 0.00 73 1005.5
20260506003517 82 141 4.0 0.0 0.00 0.00 0.00 73 1005.6
20260506003023 82 152 4.0 0.0 0.00 0.00 0.00 72 1005.5
20260506002558 83 135 4.0 0.0 0.00 0.00 0.00 72 1005.5
20260506002034 83 151 4.0 0.0 0.00 0.00 0.00 72 1005.6
20260506001536 83 127 4.0 0.0 0.00 0.00 0.00 72 1005.6
20260506001009 83 142 4.0 0.0 0.00 0.00 0.00 72 1005.5
20260506000547 83 146 5.0 0.0 0.00 0.00 0.00 72 1005.6
20260506000054 83 152 4.0 0.0 0.00 0.00 0.00 71 1005.6
20260505235523 83 136 4.0 0.0 0.00 0.00 0.00 71 1005.7
20260505235102 83 133 4.0 0.0 0.00 0.00 0.00 71 1005.6
20260505234502 83 136 4.0 0.0 0.00 0.00 0.00 71 1005.6
20260505234040 83 136 5.0 0.0 0.00 0.00 0.00 70 1005.6
20260505233510 83 148 5.0 0.0 0.00 0.00 0.00 70 1005.5
20260505233015 83 151 6.0 0.0 0.00 0.00 0.00 70 1005.5
20260505232550 83 135 6.0 0.0 0.00 0.00 0.00 69 1005.4
20260505232029 83 165 5.0 0.0 0.00 0.00 0.00 69 1005.2
20260505231532 83 172 4.0 0.0 0.00 0.00 0.00 69 1005.2
20260505231005 84 152 5.0 0.0 0.00 0.00 0.00 68 1005.2
20260505230543 84 140 6.0 0.0 0.00 0.00 0.00 68 1005.2
20260505230040 84 194 6.0 0.0 0.00 0.00 0.00 68 1005.1
20260505225510 84 138 6.0 0.0 0.00 0.00 0.00 68 1005.0
20260505225049 84 140 6.0 0.0 0.00 0.00 0.00 69 1005.0
20260505224555 84 145 7.0 0.0 0.00 0.00 0.00 69 1004.9
20260505224028 84 121 6.0 0.0 0.00 0.00 0.00 68 1005.0
20260505223503 84 130 5.0 0.0 0.00 0.00 0.00 69 1005.1
20260505223005 84 147 5.0 0.0 0.00 0.00 0.00 69 1005.2
20260505222541 84 144 5.0 0.0 0.00 0.00 0.00 68 1005.1
20260505222012 84 157 6.0 0.0 0.00 0.00 0.00 68 1005.0
20260505221603 84 129 6.0 0.0 0.00 0.00 0.00 68 1004.9
20260505221035 85 128 4.0 0.0 0.00 0.00 0.00 68 1004.9
20260505220514 85 140 6.0 0.0 0.00 0.00 0.00 68 1005.0
20260505220019 84 142 8.0 0.0 0.00 0.00 0.00 69 1005.1
20260505215557 85 140 7.0 0.0 0.00 0.00 0.00 67 1005.1
20260505215027 85 137 6.0 0.0 0.00 0.00 0.00 68 1005.2
20260505214529 85 141 6.0 0.0 0.00 0.00 0.00 68 1005.2
20260505214003 85 130 6.0 0.0 0.00 0.00 0.00 68 1005.2
20260505213543 85 166 5.0 0.0 0.00 0.00 0.00 67 1005.2
20260505213036 85 151 6.0 0.0 0.00 0.00 0.00 68 1005.3
20260505212513 85 142 6.0 0.0 0.00 0.00 0.00 67 1005.5
20260505212048 86 120 6.0 0.0 0.00 0.00 0.00 68 1005.5
20260505211554 85 144 7.0 0.0 0.00 0.00 0.00 68 1005.5
20260505211025 85 135 6.0 0.0 0.00 0.00 0.00 68 1005.6
20260505210603 85 141 6.0 0.0 0.00 0.00 0.00 68 1005.6
20260505210006 85 146 7.0 0.0 0.00 0.00 0.00 68 1005.8
20260505205547 85 144 7.0 0.0 0.00 0.00 0.00 69 1005.8
20260505205016 85 140 6.0 0.0 0.00 0.00 0.00 68 1005.8
20260505204522 85 150 6.0 0.0 0.00 0.00 0.00 68 1005.9
20260505204058 85 131 6.0 0.0 0.00 0.00 0.00 70 1005.9
20260505203532 85 180 6.0 0.0 0.00 0.00 0.00 68 1005.8
20260505203037 86 133 5.0 0.0 0.00 0.00 0.00 66 1006.1
20260505202512 86 148 4.0 0.0 0.00 0.00 0.00 66 1006.1
20260505202048 86 134 4.0 0.0 0.00 0.00 0.00 67 1006.1
20260505201556 86 126 4.0 0.0 0.00 0.00 0.00 66 1006.3
20260505201021 85 207 3.0 0.0 0.00 0.00 0.00 66 1006.5
20260505200557 85 246 3.0 0.0 0.00 0.00 0.00 67 1006.5
20260505200059 84 213 4.0 0.0 0.00 0.00 0.00 68 1006.5
20260505195536 84 155 5.0 0.0 0.00 0.00 0.00 68 1006.4
20260505195007 84 256 6.0 0.0 0.00 0.00 0.00 68 1006.5
20260505194513 83 168 7.0 0.0 0.00 0.00 0.00 69 1006.7
20260505194051 83 152 7.0 0.0 0.00 0.00 0.00 69 1006.6
20260505193525 83 126 5.0 0.0 0.00 0.00 0.00 69 1006.7
20260505193032 84 137 5.0 0.0 0.00 0.00 0.00 68 1006.8
20260505192506 83 217 5.0 0.0 0.00 0.00 0.00 69 1006.8
20260505192048 83 163 4.0 0.0 0.00 0.00 0.00 68 1006.8
20260505191605 83 143 4.0 0.0 0.00 0.00 0.00 69 1006.9
20260505191027 83 136 5.0 0.0 0.00 0.00 0.00 69 1007.0
20260505190604 83 137 7.0 0.0 0.00 0.00 0.00 69 1007.1
20260505190059 83 156 6.0 0.0 0.00 0.00 0.00 69 1007.1
20260505185525 82 145 6.0 0.0 0.00 0.00 0.00 72 1007.0
20260505185102 82 128 5.0 0.0 0.00 0.00 0.00 71 1007.1
20260505184550 82 169 4.0 0.0 0.00 0.00 0.00 70 1007.2
20260505184025 82 232 4.0 0.0 0.00 0.00 0.00 72 1007.3
20260505183605 82 159 4.0 0.0 0.00 0.00 0.00 71 1007.3
20260505183113 82 145 3.0 0.0 0.00 0.00 0.00 71 1007.6
20260505182533 81 134 3.0 0.0 0.00 0.00 0.00 73 1007.7
20260505182002 81 135 4.0 0.0 0.00 0.00 0.00 73 1007.9
20260505181553 81 142 4.0 0.0 0.00 0.00 0.00 74 1007.9
20260505181029 80 166 5.0 0.0 0.00 0.00 0.00 74 1007.9
20260505180502 79 180 5.0 0.0 0.00 0.00 0.00 75 1007.9
20260505180006 79 138 5.0 0.0 0.00 0.00 0.00 76 1008.0
20260505175542 78 161 5.0 0.0 0.00 0.00 0.00 77 1007.9
20260505175018 78 151 5.0 0.0 0.00 0.00 0.00 76 1008.2
20260505174520 78 129 4.0 0.0 0.00 0.00 0.00 77 1008.3
20260505174104 78 175 3.0 0.0 0.00 0.00 0.00 78 1008.3
20260505173536 77 123 3.0 0.0 0.00 0.00 0.00 80 1008.3
20260505173049 77 186 4.0 0.0 0.00 0.00 0.00 79 1008.3
20260505172512 77 219 4.0 0.0 0.00 0.00 0.00 79 1008.3
20260505172051 77 175 3.0 0.0 0.00 0.00 0.00 81 1008.3
20260505171601 76 130 3.0 0.0 0.00 0.00 0.00 81 1008.3
20260505171032 76 190 4.0 0.0 0.00 0.00 0.00 83 1008.4
20260505170607 76 149 3.0 0.0 0.00 0.00 0.00 82 1008.3
20260505170015 75 133 3.0 0.0 0.00 0.00 0.00 83 1008.4
20260505165544 75 250 4.0 0.0 0.00 0.00 0.00 83 1008.4
20260505165025 75 205 3.0 0.0 0.00 0.00 0.00 83 1008.4
20260505164527 75 145 3.0 0.0 0.00 0.00 0.00 84 1008.4
20260505164106 75 213 3.0 0.0 0.00 0.00 0.00 85 1008.4
20260505163536 74 142 3.0 0.0 0.00 0.00 0.00 84 1008.4
20260505163040 74 198 3.0 0.0 0.00 0.00 0.00 84 1008.5
20260505162512 74 132 3.0 0.0 0.00 0.00 0.00 85 1008.5
20260505162051 74 133 4.0 0.0 0.00 0.00 0.00 85 1008.5
20260505161551 74 276 4.0 0.0 0.00 0.00 0.00 85 1008.5
20260505161020 74 151 3.0 0.0 0.00 0.00 0.00 86 1008.5
20260505160602 73 137 3.0 0.0 0.00 0.00 0.00 86 1008.4
20260505153025 72 142 4.0 0.0 0.00 0.00 0.00 87 1008.3
20260505152500 72 140 3.0 0.0 0.00 0.00 0.00 87 1008.4
20260505152040 72 172 3.0 0.0 0.00 0.00 0.00 87 1008.4
20260505151536 72 146 4.0 0.0 0.00 0.00 0.00 88 1008.5